Flag for Germany Weather past 2 weeks in Velbert, North Rhine-Westphalia, Germany

Now
64 °F

Partly sunny.


Feels Like: 64 °F
Forecast: 44 / 65 °F
Wind: 3 mph from Southwest

Location: Essen

Current Time: Aug 20, 2014 at 5:19:14 PM

Latest Report: Aug 20, 2014 at 5:00 PM


Visibility: 44 mi

Pressure: 29.98 "Hg

Humidity: 47%

Dew point: 43 °F

Location of VelbertLocation

Historic Weather in Velbert — Graph

°F

Velbert temperature yesterday

Maximum temperature yesterday: 60 °F (at 4:00 PM)
Minimum temperature yesterday: 49 °F (at 11:00 PM)
Average temperature yesterday: 54 °F

Past Weeks' High & Low Weather Summary

 TemperatureHumidityPressure
High78 °F (Aug 8, 1:00 PM)99% (Aug 16, 6:00 AM)30.11 "Hg (Aug 16, 6:00 AM)
Low48 °F (Aug 20, 4:00 AM)41% (Aug 6, 3:00 PM)29.58 "Hg (Aug 10, 8:00 PM)
Average61 °F79%29.87 "Hg
* Reported Aug 5 4:00 PM — Aug 20 4:00 PM, Velbert, Weather by CustomWeather, © 2014

Note: Actual official high and low records may vary slightly from our data, if they occured in-between our weather recording intervals... More about our weather records

Advertising

Velbert weather history for previous 24 hours

 ConditionsComfort  
Time TempWeatherWind HumidityBarometerVisibility
4:00 PM
Aug 20
63 °FScattered clouds.3 mph48%29.98 "Hg37 mi
3:00 PM63 °FSunny.3 mph50%29.99 "Hg37 mi
2:00 PM62 °FScattered clouds.3 mph55%30.00 "Hg34 mi
1:00 PM60 °FScattered clouds.3 mph58%30.00 "Hg34 mi
12:00 PM59 °FSunny.5 mph63%30.01 "Hg19 mi
11:00 AM58 °FSunny.3 mph69%30.02 "Hg16 mi
10:00 AM55 °FSunny.3 mph76%30.01 "Hg14 mi
9:00 AM52 °FSunny.3 mph83%30.01 "Hg15 mi
8:00 AM49 °FSunny.3 mph86%30.00 "Hg14 mi
7:00 AM48 °FPassing clouds.3 mph87%30.00 "Hg16 mi
6:00 AM48 °FPassing clouds.3 mph89%29.99 "Hg16 mi
5:00 AM48 °FPassing clouds.5 mph88%29.98 "Hg18 mi
4:00 AM48 °FPassing clouds.3 mph88%29.98 "Hg25 mi
3:00 AM48 °FClear.3 mph86%29.97 "Hg28 mi
2:00 AM49 °FClear.3 mph83%29.97 "Hg31 mi
1:00 AM49 °FClear.3 mph83%29.97 "Hg25 mi
12:00 AM49 °FClear.3 mph87%29.97 "Hg18 mi
11:00 PM
Aug 19
49 °FClear.3 mph84%29.96 "Hg25 mi
10:00 PM51 °FPassing clouds.2 mph83%29.94 "Hg28 mi
9:00 PM53 °FOvercast.2 mph78%29.93 "Hg28 mi
8:00 PM54 °FPartly sunny.3 mph80%29.91 "Hg22 mi
7:00 PM54 °FOvercast.3 mph81%29.88 "Hg34 mi
6:00 PM52 °FLight rain. Low clouds.3 mph84%29.87 "Hg37 mi
5:00 PM58 °FLow clouds.5 mph65%29.85 "Hg31 mi
Weather by CustomWeather, © 2014

See weather overviewHow to use our weather pages